Location: *
(45.8589°N, 4.7139°E)
Time: 01:07:47
(UTC+00:00)

SL-4 R/B - Pass Details

Date: 09 April 2020
Orbit: 428 x 666 km, 51.6° (Epoch: 29 May)

Event Time Altitude Azimuth Distance (km) Brightness Sun altitude
Rises 20:41:36 0° 284° (WNW) 2,393 6.4 -22.7°
Reaches altitude 10° 20:43:51 10° 296° (WNW) 1,530 5.3 -23.0°
Maximum altitude 20:46:55 30° 360° (N) 811 3.2 -23.4°
Enters shadow 20:47:16 29° 12° (NNE) 825 3.1 -23.4°
